• In Russia
  • List of Countries
  • For 7 days
  • Water Temperature
  • Satellite Maps
  • Weather Map
  • Weather Widgets
  • user-avatar
    Login

    Hourly Weather Lepyagi

    Today, 26 September, Wednesday

    Time Temperature Precipitation Wind Pressure Humidity
    00:00 +6°C° 0 mm 4 mps 745 mmHg 74%
    01:00 +6°C° 0 mm 4 mps 745 mmHg 75%
    02:00 +6°C° 0 mm 4 mps 745 mmHg 77%
    03:00 +5°C° 0 mm 3 mps 746 mmHg 79%
    04:00 +5°C° 0 mm 3 mps 746 mmHg 82%
    05:00 +4°C° 0 mm 3 mps 747 mmHg 84%
    06:00 +3°C° 0 mm 4 mps 747 mmHg 87%
    07:00 +4°C° 0 mm 4 mps 748 mmHg 84%
    08:00 +5°C° 0 mm 4 mps 748 mmHg 80%
    09:00 +5°C° 0 mm 4 mps 749 mmHg 77%
    10:00 +6°C° 0 mm 4 mps 749 mmHg 71%
    11:00 +7°C° 0 mm 5 mps 750 mmHg 65%
    12:00 +8°C° 0 mm 5 mps 750 mmHg 60%
    13:00 +9°C° 0 mm 5 mps 750 mmHg 57%
    14:00 +9°C° 0 mm 5 mps 750 mmHg 55%
    15:00 +10°C° 0 mm 5 mps 750 mmHg 53%
    16:00 +10°C° 0 mm 4 mps 750 mmHg 57%
    17:00 +9°C° 0 mm 3 mps 750 mmHg 60%
    18:00 +8°C° 0 mm 3 mps 750 mmHg 63%
    19:00 +8°C° 0 mm 3 mps 750 mmHg 64%
    20:00 +6°C° 0 mm 4 mps 750 mmHg 65%
    21:00 +5°C° 0 mm 4 mps 750 mmHg 66%
    22:00 +5°C° 0 mm 5 mps 749 mmHg 67%
    23:00 +5°C° 0 mm 5 mps 749 mmHg 67%

    Tomorrow, 27 September, Thursday

    Time Temperature Precipitation Wind Pressure Humidity
    00:00 +5°C° 0 mm 6 mps 748 mmHg 68%
    01:00 +5°C° 0 mm 6 mps 747 mmHg 66%
    02:00 +5°C° 0 mm 7 mps 747 mmHg 64%
    03:00 +5°C° 0 mm 8 mps 746 mmHg 62%
    04:00 +5°C° 0.2 mm 8 mps 745 mmHg 62%
    05:00 +5°C° 0.2 mm 9 mps 744 mmHg 63%
    06:00 +5°C° 0.2 mm 9 mps 743 mmHg 63%
    07:00 +5°C° 0.5 mm 10 mps 742 mmHg 67%
    08:00 +4°C° 0.5 mm 11 mps 741 mmHg 70%
    09:00 +4°C° 0.5 mm 12 mps 741 mmHg 74%
    10:00 +4°C° 0.4 mm 11 mps 741 mmHg 76%
    11:00 +4°C° 0.4 mm 11 mps 740 mmHg 79%
    12:00 +6°C° 0.4 mm 11 mps 740 mmHg 81%
    13:00 +6°C° 0.2 mm 10 mps 740 mmHg 82%
    14:00 +7°C° 0.2 mm 9 mps 740 mmHg 82%
    15:00 +7°C° 0.2 mm 9 mps 740 mmHg 82%
    16:00 +7°C° 0.1 mm 8 mps 740 mmHg 82%
    17:00 +8°C° 0.1 mm 7 mps 740 mmHg 82%
    18:00 +8°C° 0.1 mm 7 mps 741 mmHg 81%
    19:00 +8°C° 0.1 mm 6 mps 741 mmHg 83%
    20:00 +8°C° 0.1 mm 6 mps 741 mmHg 84%
    21:00 +8°C° 0.1 mm 6 mps 742 mmHg 85%
    22:00 +7°C° 0 mm 5 mps 742 mmHg 87%
    23:00 +7°C° 0 mm 5 mps 742 mmHg 89%

    Day after tomorrow, 28 September, Friday

    Time Temperature Precipitation Wind Pressure Humidity
    00:00 +7°C° 0 mm 5 mps 742 mmHg 90%
    01:00 +7°C° 0 mm 5 mps 742 mmHg 91%
    02:00 +6°C° 0 mm 5 mps 743 mmHg 91%
    03:00 +6°C° 0 mm 5 mps 743 mmHg 91%
    04:00 +6°C° 0 mm 5 mps 742 mmHg 91%
    05:00 +6°C° 0 mm 5 mps 742 mmHg 91%
    06:00 +6°C° 0 mm 5 mps 742 mmHg 92%
    07:00 +6°C° 0 mm 7 mps 741 mmHg 87%
    08:00 +7°C° 0 mm 8 mps 741 mmHg 82%
    09:00 +8°C° 0 mm 9 mps 741 mmHg 78%
    10:00 +11°C° 0 mm 9 mps 740 mmHg 74%
    11:00 +12°C° 0 mm 10 mps 740 mmHg 70%
    12:00 +13°C° 0 mm 10 mps 739 mmHg 67%
    13:00 +14°C° 0 mm 10 mps 739 mmHg 66%
    14:00 +16°C° 0 mm 10 mps 739 mmHg 66%
    15:00 +16°C° 0 mm 10 mps 738 mmHg 65%
    16:00 +16°C° 0 mm 10 mps 738 mmHg 69%
    17:00 +16°C° 0 mm 9 mps 738 mmHg 72%
    18:00 +15°C° 0 mm 9 mps 737 mmHg 75%
    19:00 +13°C° 0.3 mm 8 mps 738 mmHg 76%
    20:00 +14°C° 0.3 mm 7 mps 739 mmHg 77%
    21:00 +12°C° 0.3 mm 7 mps 739 mmHg 78%
    22:00 +10°C° 0.1 mm 6 mps 740 mmHg 78%
    23:00 +9°C° 0.1 mm 5 mps 741 mmHg 79%

    29 September, Saturday

    Time Temperature Precipitation Wind Pressure Humidity
    00:00 +8°C° 0.1 mm 4 mps 741 mmHg 79%
    01:00 +7°C° 0 mm 4 mps 742 mmHg 81%
    02:00 +7°C° 0 mm 3 mps 743 mmHg 83%
    03:00 +5°C° 0 mm 3 mps 743 mmHg 84%
    04:00 +6°C° 0 mm 2 mps 744 mmHg 85%
    05:00 +5°C° 0 mm 2 mps 744 mmHg 86%
    06:00 +5°C° 0 mm 2 mps 745 mmHg 86%
    07:00 +5°C° 0 mm 2 mps 745 mmHg 80%
    08:00 +6°C° 0 mm 2 mps 745 mmHg 73%
    09:00 +7°C° 0 mm 2 mps 746 mmHg 67%
    10:00 +8°C° 0 mm 2 mps 746 mmHg 60%
    11:00 +9°C° 0 mm 2 mps 746 mmHg 53%
    12:00 +10°C° 0 mm 2 mps 747 mmHg 47%
    13:00 +10°C° 0 mm 2 mps 746 mmHg 46%
    14:00 +12°C° 0 mm 2 mps 746 mmHg 46%
    15:00 +12°C° 0 mm 2 mps 746 mmHg 45%
    16:00 +10°C° 0 mm 2 mps 747 mmHg 49%
    17:00 +10°C° 0 mm 2 mps 747 mmHg 53%
    18:00 +10°C° 0 mm 1 mps 747 mmHg 57%
    19:00 +10°C° 0 mm 1 mps 748 mmHg 59%
    20:00 +8°C° 0 mm 2 mps 748 mmHg 61%
    21:00 +8°C° 0 mm 2 mps 748 mmHg 63%
    22:00 +7°C° 0 mm 2 mps 749 mmHg 65%
    23:00 +7°C° 0 mm 2 mps 749 mmHg 67%

    30 September, Sunday

    Time Temperature Precipitation Wind Pressure Humidity
    00:00 +7°C° 0 mm 2 mps 749 mmHg 70%
    01:00 +6°C° 0 mm 2 mps 750 mmHg 72%
    02:00 +5°C° 0 mm 2 mps 750 mmHg 74%
    03:00 +5°C° 0 mm 2 mps 750 mmHg 75%
    04:00 +4°C° 0 mm 2 mps 750 mmHg 75%
    05:00 +4°C° 0 mm 2 mps 750 mmHg 74%
    06:00 +4°C° 0 mm 2 mps 751 mmHg 73%
    07:00 +4°C° 0 mm 2 mps 751 mmHg 69%
    08:00 +5°C° 0 mm 2 mps 751 mmHg 65%
    09:00 +6°C° 0 mm 2 mps 752 mmHg 60%
    10:00 +7°C° 0 mm 2 mps 752 mmHg 56%
    11:00 +10°C° 0 mm 1 mps 752 mmHg 51%
    12:00 +11°C° 0 mm 1 mps 752 mmHg 46%
    13:00 +10°C° 0 mm 2 mps 752 mmHg 44%
    14:00 +10°C° 0 mm 2 mps 752 mmHg 42%
    15:00 +12°C° 0 mm 2 mps 751 mmHg 41%
    16:00 +10°C° 0 mm 2 mps 751 mmHg 45%
    17:00 +9°C° 0 mm 2 mps 751 mmHg 49%
    18:00 +9°C° 0 mm 1 mps 751 mmHg 53%
    19:00 +8°C° 0 mm 2 mps 751 mmHg 54%
    20:00 +7°C° 0 mm 2 mps 751 mmHg 55%
    21:00 +6°C° 0 mm 2 mps 751 mmHg 56%
    22:00 +6°C° 0 mm 2 mps 751 mmHg 57%
    23:00 +6°C° 0 mm 2 mps 751 mmHg 59%

    1 October, Monday

    Time Temperature Precipitation Wind Pressure Humidity
    00:00 +5°C° 0 mm 3 mps 751 mmHg 60%
    01:00 +4°C° 0 mm 3 mps 751 mmHg 63%
    02:00 +4°C° 0 mm 3 mps 751 mmHg 65%
    03:00 +4°C° 0 mm 3 mps 751 mmHg 68%
    04:00 +4°C° 0 mm 3 mps 751 mmHg 70%
    05:00 +3°C° 0 mm 3 mps 751 mmHg 73%
    06:00 +4°C° 0 mm 2 mps 751 mmHg 75%
    07:00 +4°C° 0 mm 3 mps 751 mmHg 72%
    08:00 +5°C° 0 mm 3 mps 751 mmHg 69%
    09:00 +8°C° 0 mm 3 mps 751 mmHg 66%
    10:00 +9°C° 0 mm 3 mps 751 mmHg 61%
    11:00 +10°C° 0 mm 3 mps 751 mmHg 56%
    12:00 +12°C° 0 mm 4 mps 751 mmHg 51%
    13:00 +12°C° 0 mm 3 mps 750 mmHg 50%
    14:00 +13°C° 0 mm 3 mps 750 mmHg 48%
    15:00 +13°C° 0 mm 3 mps 750 mmHg 47%
    16:00 +12°C° 0 mm 3 mps 750 mmHg 52%
    17:00 +12°C° 0 mm 2 mps 749 mmHg 56%
    18:00 +11°C° 0 mm 1 mps 749 mmHg 60%
    19:00 +10°C° 0 mm 1 mps 749 mmHg 62%
    20:00 +9°C° 0 mm 2 mps 749 mmHg 63%
    21:00 +8°C° 0 mm 2 mps 749 mmHg 64%
    22:00 +8°C° 0 mm 2 mps 749 mmHg 65%
    23:00 +7°C° 0 mm 2 mps 749 mmHg 65%
    Show more